Location: ?????????
(38.5999°N, 22.7695°E)
Time: 11:41:18
(UTC+00:00)

YAOGAN 6 - Pass Details

Date: 23 May 2024
Orbit: 409 x 434 km, 97.2° (Epoch: 19 June)

Event Time Altitude Azimuth Distance (km) Brightness Sun altitude
Rises 02:41:55 0° 359° (N) 2,426 6.6 -5.7°
Reaches altitude 10° 02:44:06 10° 348° (NNW) 1,549 5.4 -5.4°
Maximum altitude 02:46:59 28° 288° (WNW) 844 3.4 -4.9°
Drops below altitude 10° 02:49:50 10° 227° (SW) 1,525 4.4 -4.4°
Enters shadow 02:51:09 - 218° (SW) 2,034 5.1 -4.2°
